LANDSAT 4 1 13367U 82072A 12136.91806193 .00003093 00000-0 21564-3 0 547 2 13367 98.2725 132.8985 0016856 3.4311 356.7015 15.06157133604345 TDRS 1 1 13969U 83026B 12136.25242180 -.00000039 00000-0 10000-3 0 4075 2 13969 13.7832 2.6229 0020929 112.2749 247.8957 0.98743971 79559 LANDSAT 5 1 14780U 84021A 12137.22414189 .00000268 00000-0 69418-4 0 9550 2 14780 98.1470 203.3118 0003335 41.9211 318.2254 14.57154726500339 ERBS 1 15354U 84108B 12136.93000267 .00003598 00000-0 17987-3 0 9427 2 15354 56.9895 75.8500 0013009 200.4945 159.5572 15.19838052513470 TDRS 3 1 19548U 88091B 12135.08473786 -.00000305 00000-0 10000-3 0 8552 2 19548 13.6402 28.6154 0016093 357.7049 187.5077 1.00264521 73797 TDRS 4 1 19883U 89021B 12135.54860390 -.00000209 00000-0 00000+0 0 2372 2 19883 10.8849 34.6703 0006810 211.6340 148.2168 0.98484639257348 HST 1 20580U 90037B 12137.17414033 .00001860 00000-0 12441-3 0 15 2 20580 28.4717 353.0341 0003418 75.9708 284.1312 15.02467850 9915 TDRS 5 1 21639U 91054B 12135.29881678 .00000089 00000-0 10000-3 0 667 2 21639 12.0679 42.8472 0017024 339.9513 149.5061 1.00267545 76113 TOPEX/POSEIDON 1 22076U 92052A 12136.85431284 -.00000038 00000-0 10000-3 0 8538 2 22076 66.0376 21.2574 0007504 267.1277 92.8879 12.80966148924481 TDRS 6 1 22314U 93003B 12136.08087737 -.00000290 00000-0 10000-3 0 896 2 22314 11.4780 45.6680 0014585 338.9188 191.8176 1.00273489 70843 TDRS 7 1 23613U 95035B 12137.10062942 -.00000196 00000-0 10000-3 0 2180 2 23613 13.0743 36.1395 0034856 344.4804 334.3793 1.00266591 61655 RXTE (XTE) 1 23757U 95074A 12136.95494000 .00005528 00000-0 14714-3 0 6406 2 23757 22.9913 350.4629 0007295 40.6179 319.4853 15.34157009908837 TRMM 1 25063U 97074A 12137.14196747 .00018300 00000-0 25316-3 0 9774 2 25063 34.9612 141.0502 0000520 304.2375 55.8337 15.56166076825927 KIKU-7 (ETS-VII) 1 25064U 97074B 12137.22861711 .00006275 00000-0 19914-3 0 6181 2 25064 34.9697 135.6210 0004890 199.3778 160.6755 15.31963943803768 ISS (ZARYA) 1 25544U 98067A 12137.22090924 .00011335 00000-0 16545-3 0 5636 2 25544 51.6406 282.2467 0010515 321.4531 98.1082 15.56132344773038 LANDSAT 7 1 25682U 99020A 12137.06027657 .00000557 00000-0 13372-3 0 795 2 25682 98.2029 205.7447 0000348 121.3772 238.7468 14.57097374696008 FUSE 1 1 25791U 99035A 12135.74205884 .00000343 00000-0 48792-4 0 2559 2 25791 24.9854 293.3351 0010594 278.6254 81.3059 14.42020826679914 TERRA 1 25994U 99068A 12137.21329882 .00000341 00000-0 85783-4 0 51 2 25994 98.2075 211.7671 0001297 88.7100 271.4270 14.57119689660107 TDRS 8 1 26388U 00034A 12136.48916954 -.00000230 00000-0 10000-3 0 6440 2 26388 3.8755 77.5898 0004535 325.2733 96.0386 1.00273061 43596 EO-1 1 26619U 00075A 12137.18465387 .00000351 00000-0 78186-4 0 3562 2 26619 98.0796 202.7755 0009625 204.3711 155.7063 14.62609775611757 TIMED 1 26998U 01055B 12136.89305371 .00000771 00000-0 94783-4 0 1839 2 26998 74.0740 45.4839 0002156 230.7080 129.3866 14.84941485565341 TDRS 9 1 27389U 02011A 12133.09250786 -.00000278 00000-0 00000-0 0 8975 2 27389 1.6141 137.7076 0017172 260.5801 183.9354 1.00262949 38811 AQUA 1 27424U 02022A 12136.88977964 .00000621 00000-0 14786-3 0 3022 2 27424 98.1932 77.9532 0001710 61.3003 298.8393 14.57127348533665 TDRS 10 1 27566U 02055A 12135.49624046 .00000072 00000-0 10000-3 0 6423 2 27566 1.4644 64.0547 0007328 203.3031 329.5482 1.00268111 34656 SORCE 1 27651U 03004A 12135.63919616 .00001163 00000-0 15374-3 0 7948 2 27651 39.9962 209.2046 0024998 179.3698 180.7068 14.83535279504016 GALEX 1 27783U 03017A 12136.75132598 .00000613 00000-0 10329-3 0 4972 2 27783 28.9992 264.6690 0003887 110.1438 249.9579 14.60328989483342 GP-B 1 28230U 04014A 12136.57648100 .00000502 00000-0 69849-4 0 4204 2 28230 89.9117 149.1095 0002499 60.2730 299.8735 14.76562683434645 AURA 1 28376U 04026A 12135.65929538 .00000557 00000-0 13357-3 0 4586 2 28376 98.1920 78.9217 0001410 72.4066 287.7275 14.57119855416535 SWIFT 1 28485U 04047A 12136.21525887 .00002333 00000-0 17216-3 0 1615 2 28485 20.5581 90.8407 0013360 301.1218 58.7899 14.94735884408761 THEMIS A 1 30580U 07004A 12135.95833333 -.00000374 00000-0 00000+0 0 3938 2 30580 7.7570 113.0670 7984915 335.5016 352.1300 1.00283900 18554 THEMIS D 1 30797U 07004D 12136.91666667 -.00000421 00000-0 00000+0 0 5529 2 30797 5.5368 60.9417 7694192 24.8782 345.4521 1.00287793 18416 THEMIS E 1 30798U 07004E 12135.91666667 -.00000363 00000-0 00000+0 0 5669 2 30798 4.7996 75.4603 7666075 13.2198 342.3358 1.00282836 18557 AIM 1 31304U 07015A 12136.77017612 .00002979 00000-0 27371-3 0 6962 2 31304 97.8297 245.3931 0009854 292.2535 67.7660 14.95560628275503 C/NOFS 1 32765U 08017A 12137.15169360 .00009526 00000-0 37351-3 0 539 2 32765 13.0080 112.6140 0265679 184.0604 175.7502 14.94503601221768 FGRST (GLAST) 1 33053U 08029A 12136.96664423 .00000281 00000-0 00000+0 0 559 2 33053 25.5841 9.9134 0013835 98.2079 262.0433 15.06168480216358 WISE 1 36119U 09071A 12136.92666991 .00002768 00000-0 15031-3 0 7004 2 36119 97.5164 141.8229 0003429 5.0901 355.0367 15.15351870133602